Tracking 35334 objects as of 13-Sep-2026
HD Live streaming from Space Station
objects crossing your sky now

TRANSIT 1B


TRANSIT 1B is no longer on orbit


NORAD ID: 31
Int'l Code: 1960-003B
Launch date: April 13, 1960
Source: United States (US)
Launch site: AIR FORCE EASTERN TEST RANGE (AFETR)
Decay date: 1967-10-05
Your satellite tracking list
Your tracking list is empty




NASA's NSSDC Master Catalog

Two Line Element Set (TLE):
1 00031U 60003  B 67275.67017494  .01669365 +00000-0 +00000-0 0  9994
2 00031 051.2007 317.7772 0014942 349.5805 010.4801 16.23394966418285
Source of the keplerian elements: AFSPC